User: anonymous   Login
Location: Langangen
(59.1000°N, 9.8000°E)
Time: 11:01:03
(UTC+02:00)
Language:

Iridium 60 - Orbit

View from above orbital plane
View from above orbital plane
View from above satellite
View from above satellite

Ground track
Ground track

The orbit data is extracted from the following two-line orbital elements,

1 25276U 98019E   15123.49612150  .00000296  00000-0  98774-4 0  9995
2 25276 086.3961 251.2173 0002235 095.1664 264.9787 14.34216452894883
Epoch (UTC): 03 May 2015 11:54:24
Eccentricity: 0.0002235
inclination: 86.3961°
perigee height: 776 km
apogee height: 779 km
right ascension of ascending node: 251.2173°
argument of perigee: 95.1664°
revolutions per day: 14.34216452
mean anomaly at epoch: 264.9787°
orbit number at epoch: 89488

The dashed part of the orbit path shows where the satellite is in the earth's shadow,  

DLR